Weather in Otradnoye

Russia / Belgorod Oblast     50°24′08″N   36°19′08″E
temp.,
°C
wind,
m/s
gust,
m/s
humid.,
%
clouds,
%
prec.,
mm/h
press.,
hPa
HPBL,
m
6 march, sat
sat600:00−2n249090 0.0 1017214
03:00−2n358688 0.0 1018303
06:00−3n3578100 0.0 1017301
09:00−2nnw5776100 0.0 1019491
12:00−1nnw6855100 0.0 10191149
15:00−1nnw795852 0.0 10191206
18:00−3nw58640 0.0 10201095
21:00−4nw48690 0.0 1021810
7 march, sun
sun700:00−4wnw477844 0.0 1022757
03:00−4w477971 0.1 1022695
06:00−5wsw597263 0.0 1020531
09:00−3wsw8125757 0.0 1018865
12:000wsw101549100 0.0 10151244
15:00+2wsw121849100 0.0 10121557
18:000wsw111782100 0.1 10091291
21:000w91679100 0.2 10091066
8 march, mon
mon800:000w81483100 0.1 1009982
03:00−1w7118999 0.1 1009783
06:00−2wsw71294100 0.4 1007716
09:00−1w81293100 1.4 1008831
12:00−1nw6979100 1.0 1009969
15:00−2nw794482 1.0 10111098
18:00−4nw47590 0.0 1012653
21:00−5nw36730 0.0 1014514
9 march, tue
tue900:00−6nw25760 0.0 1015342
03:00−6wnw24790 0.0 1015163
06:00−7wnw24850 0.0 1016172
09:00−6nw347610 0.0 1016420
12:00−4nw456389 0.0 1016933
15:00−3nw566595 0.1 1017969
18:00−5nnw677296 0.1 1018931
21:00−7n577590 0.1 1022765
10 march, wed
wed1000:00−8n36760 0.0 1023519
03:00−9nnw34850 0.0 1025318
06:00−10nw23880 0.0 1025231
09:00−8wnw23730 0.0 1026332
12:00−5w344754 0.0 1025623
15:00−2w464032 0.0 1024875
18:00−3w47499 0.0 1023634
21:00−5wnw486210 0.0 1024457